PIA702 EGCC-OPIS

Flight info

Callsign PIA702
Flight time 7h 16m
Altitude 33000
Route DESIG L603 LAMSO DCT RKN DCT NOMKA L620 SUVUT DCT OMELO DCT VLM/N0485F350 DCT TIBLA DCT ROMIS DCT KOPAT DCT KARIL DCT UDROS UN743 GAKSU UT310 SIN UN644 KARDE UL851 TBN UR317 REBLO DCT TABAS DCT MATAL M11 EDATA/N0484F370 M11 LUSAL N701 BAKUV L850 DUKAN B449 DOLOS B475 NINOP A909 LEMOD N644 REGET J139 KALMI
Aircraft B772/H-SDE2E3FGHIJ5LORVWXY/LB1D1

Departure

Time 2026-04-21 18:55
Airport Manchester Airport (EGCC)

Arrival

Time 2026-04-22 02:11
Airport Islamabad International Airport (OPIS)
Time Latitude Longitude Altitude Speed Heading
2026-04-21 16:08 53.36846 -2.28601 260 ft 0 kts 315°
2026-04-21 18:27 53.36846 -2.28600 259 ft 1 kts 315°
2026-04-21 18:27 53.36836 -2.28583 259 ft 3 kts 314°
2026-04-21 18:28 53.36822 -2.28560 259 ft 3 kts 314°
2026-04-21 18:28 53.36810 -2.28538 259 ft 3 kts 303°
2026-04-21 18:28 53.36802 -2.28515 259 ft 3 kts 272°
2026-04-21 18:28 53.36804 -2.28492 259 ft 3 kts 236°
2026-04-21 18:29 53.36816 -2.28467 259 ft 3 kts 223°
2026-04-21 18:29 53.36825 -2.28453 259 ft 0 kts 224°
2026-04-21 18:29 53.36826 -2.28453 259 ft 0 kts 224°
2026-04-21 18:33 53.36815 -2.28470 259 ft 7 kts 224°
2026-04-21 18:33 53.36753 -2.28570 259 ft 14 kts 224°
2026-04-21 18:33 53.36683 -2.28687 259 ft 14 kts 225°
2026-04-21 18:34 53.36635 -2.28766 259 ft 8 kts 220°
2026-04-21 18:34 53.36585 -2.28757 259 ft 8 kts 139°
2026-04-21 18:34 53.36569 -2.28714 259 ft 3 kts 120°
2026-04-21 18:34 53.36568 -2.28710 259 ft 0 kts 121°
2026-04-21 18:38 53.36566 -2.28707 259 ft 2 kts 121°
2026-04-21 18:38 53.36547 -2.28667 259 ft 6 kts 133°
2026-04-21 18:38 53.36509 -2.28602 259 ft 9 kts 134°
2026-04-21 18:38 53.36461 -2.28519 259 ft 10 kts 134°
2026-04-21 18:39 53.36411 -2.28432 259 ft 11 kts 134°
2026-04-21 18:39 53.36348 -2.28326 259 ft 13 kts 135°
2026-04-21 18:39 53.36282 -2.28216 259 ft 13 kts 135°
2026-04-21 18:39 53.36204 -2.28086 259 ft 18 kts 135°
2026-04-21 18:40 53.36133 -2.28039 259 ft 11 kts 192°
2026-04-21 18:40 53.36062 -2.28019 259 ft 11 kts 139°
2026-04-21 18:40 53.36023 -2.27956 259 ft 13 kts 135°
2026-04-21 18:40 53.35922 -2.27842 259 ft 14 kts 182°
2026-04-21 18:41 53.35827 -2.27863 259 ft 14 kts 187°
2026-04-21 18:41 53.35731 -2.27880 258 ft 14 kts 186°
2026-04-21 18:41 53.35638 -2.27901 254 ft 10 kts 204°
2026-04-21 18:41 53.35584 -2.27991 252 ft 12 kts 229°
2026-04-21 18:42 53.35514 -2.28110 248 ft 15 kts 216°
2026-04-21 18:42 53.35415 -2.28160 245 ft 15 kts 185°
2026-04-21 18:42 53.35314 -2.28205 242 ft 15 kts 206°
2026-04-21 18:42 53.35229 -2.28307 238 ft 15 kts 229°
2026-04-21 18:43 53.35159 -2.28447 237 ft 16 kts 231°
2026-04-21 18:43 53.35088 -2.28597 230 ft 17 kts 231°
2026-04-21 18:43 53.35010 -2.28756 229 ft 18 kts 226°
2026-04-21 18:43 53.34919 -2.28910 225 ft 19 kts 225°
2026-04-21 18:44 53.34832 -2.29065 223 ft 18 kts 228°
2026-04-21 18:44 53.34771 -2.29184 217 ft 12 kts 230°
2026-04-21 18:44 53.34715 -2.29293 220 ft 12 kts 226°
2026-04-21 18:44 53.34693 -2.29320 212 ft 0 kts 207°
2026-04-21 18:51 53.34691 -2.29322 217 ft 1 kts 207°
2026-04-21 18:51 53.34657 -2.29340 215 ft 7 kts 191°
2026-04-21 18:51 53.34604 -2.29338 214 ft 8 kts 172°
2026-04-21 18:52 53.34555 -2.29309 219 ft 8 kts 150°
2026-04-21 18:52 53.34542 -2.29232 214 ft 8 kts 70°
2026-04-21 18:52 53.34558 -2.29189 218 ft 0 kts 51°
2026-04-21 18:54 53.34582 -2.29137 212 ft 19 kts 51°
2026-04-21 18:54 53.34817 -2.28649 232 ft 90 kts 51°
2026-04-21 18:54 53.35354 -2.27535 256 ft 154 kts 53°
2026-04-21 18:54 53.36108 -2.25979 599 ft 178 kts 52°
2026-04-21 18:55 53.36625 -2.24978 1474 ft 162 kts 54°
2026-04-21 18:55 53.37598 -2.22964 2241 ft 180 kts 56°
2026-04-21 18:55 53.38412 -2.21211 2518 ft 199 kts 56°
2026-04-21 18:55 53.39308 -2.19288 2815 ft 219 kts 56°
2026-04-21 18:56 53.40267 -2.17238 3334 ft 228 kts 56°
2026-04-21 18:56 53.41253 -2.15138 4023 ft 231 kts 56°
2026-04-21 18:56 53.42158 -2.13208 4604 ft 236 kts 56°
2026-04-21 18:56 53.43185 -2.11020 5260 ft 241 kts 56°
2026-04-21 18:57 53.44227 -2.08797 5893 ft 246 kts 56°
2026-04-21 18:57 53.45295 -2.06514 6534 ft 250 kts 55°
2026-04-21 18:57 53.46380 -2.04197 7165 ft 254 kts 55°
2026-04-21 18:57 53.47390 -2.02036 7767 ft 254 kts 55°
2026-04-21 18:58 53.48477 -1.99722 8423 ft 256 kts 54°
2026-04-21 18:58 53.49600 -1.97428 9198 ft 252 kts 54°
2026-04-21 18:58 53.50719 -1.95161 9915 ft 251 kts 53°
2026-04-21 18:58 53.51783 -1.92930 10579 ft 247 kts 60°
2026-04-21 18:59 53.52531 -1.90328 10990 ft 250 kts 72°
2026-04-21 18:59 53.52756 -1.87442 11155 ft 262 kts 101°
2026-04-21 18:59 53.52174 -1.84439 11353 ft 274 kts 109°
2026-04-21 18:59 53.51504 -1.81358 11680 ft 287 kts 108°
2026-04-21 19:00 53.50847 -1.78109 12013 ft 300 kts 107°
2026-04-21 19:00 53.50193 -1.74686 12299 ft 315 kts 107°
2026-04-21 19:00 53.49534 -1.71093 12628 ft 328 kts 106°
2026-04-21 19:00 53.48879 -1.67408 13342 ft 328 kts 105°
2026-04-21 19:01 53.48232 -1.63734 14063 ft 332 kts 106°
2026-04-21 19:01 53.47567 -1.59953 14397 ft 343 kts 105°
2026-04-21 19:01 53.46891 -1.56153 15285 ft 336 kts 106°
2026-04-21 19:01 53.46211 -1.52371 15772 ft 344 kts 106°
2026-04-21 19:02 53.45516 -1.48513 16170 ft 351 kts 106°
2026-04-21 19:02 53.44806 -1.44583 17070 ft 345 kts 106°
2026-04-21 19:02 53.44104 -1.40701 17444 ft 355 kts 106°
2026-04-21 19:02 53.43392 -1.36761 18047 ft 355 kts 106°
2026-04-21 19:03 53.42665 -1.32756 18425 ft 364 kts 106°
2026-04-21 19:03 53.41928 -1.28705 19106 ft 361 kts 106°
2026-04-21 19:03 53.41200 -1.24634 19346 ft 371 kts 105°
2026-04-21 19:03 53.40478 -1.20498 19953 ft 368 kts 106°
2026-04-21 19:04 53.39731 -1.16337 20197 ft 377 kts 107°
2026-04-21 19:04 53.38963 -1.12154 20847 ft 374 kts 107°
2026-04-21 19:04 53.38183 -1.07933 21015 ft 384 kts 107°
2026-04-21 19:04 53.37389 -1.03635 21536 ft 383 kts 107°
2026-04-21 19:05 53.36596 -0.99347 21887 ft 390 kts 107°
2026-04-21 19:05 53.35787 -0.94976 22264 ft 393 kts 107°
2026-04-21 19:05 53.34973 -0.90581 22655 ft 396 kts 107°
2026-04-21 19:05 53.34158 -0.86190 23235 ft 394 kts 107°
2026-04-21 19:06 53.33344 -0.81817 23467 ft 403 kts 107°
2026-04-21 19:06 53.32507 -0.77321 23807 ft 406 kts 107°
2026-04-21 19:06 53.31661 -0.72795 24156 ft 410 kts 107°
2026-04-21 19:06 53.30801 -0.68204 24356 ft 416 kts 107°
2026-04-21 19:07 53.29926 -0.63555 24530 ft 423 kts 107°
2026-04-21 19:07 53.29034 -0.58830 24691 ft 430 kts 107°
2026-04-21 19:07 53.28124 -0.54018 24875 ft 436 kts 106°
2026-04-21 19:07 53.27204 -0.49158 25067 ft 441 kts 106°
2026-04-21 19:08 53.26272 -0.44251 25338 ft 445 kts 106°
2026-04-21 19:08 53.25335 -0.39305 25613 ft 448 kts 106°
2026-04-21 19:08 53.24394 -0.34324 25889 ft 452 kts 106°
2026-04-21 19:08 53.23444 -0.29308 26142 ft 455 kts 106°
2026-04-21 19:09 53.22480 -0.24267 26489 ft 456 kts 106°
2026-04-21 19:09 53.21505 -0.19220 26750 ft 460 kts 107°
2026-04-21 19:09 53.20518 -0.14123 27033 ft 463 kts 107°
2026-04-21 19:09 53.19526 -0.09001 27338 ft 465 kts 107°
2026-04-21 19:10 53.18529 -0.03867 27634 ft 467 kts 107°
2026-04-21 19:10 53.17523 0.01313 27908 ft 470 kts 106°
2026-04-21 19:10 53.16513 0.06511 28173 ft 473 kts 106°
2026-04-21 19:10 53.15497 0.11738 28433 ft 475 kts 106°
2026-04-21 19:11 53.14487 0.16922 28701 ft 478 kts 107°
2026-04-21 19:11 53.13457 0.22193 28975 ft 480 kts 106°
2026-04-21 19:11 53.12418 0.27497 29258 ft 482 kts 107°
2026-04-21 19:11 53.11373 0.32812 29496 ft 484 kts 107°
2026-04-21 19:12 53.10665 0.36410 29679 ft 486 kts 107°
2026-04-21 19:12 53.09261 0.43515 30032 ft 488 kts 107°
2026-04-21 19:12 53.08194 0.48898 30271 ft 490 kts 107°
2026-04-21 19:12 53.07123 0.54284 30511 ft 492 kts 107°
2026-04-21 19:13 53.06045 0.59692 30703 ft 493 kts 107°
2026-04-21 19:13 53.04962 0.65111 30898 ft 494 kts 107°
2026-04-21 19:13 53.03876 0.70531 31119 ft 495 kts 107°
2026-04-21 19:13 53.02780 0.75987 31292 ft 496 kts 107°
2026-04-21 19:14 53.02057 0.79576 31417 ft 497 kts 107°
2026-04-21 19:14 53.00599 0.86804 31645 ft 498 kts 107°
2026-04-21 19:14 52.99488 0.92289 31805 ft 500 kts 107°
2026-04-21 19:14 52.98384 0.97752 31953 ft 500 kts 106°
2026-04-21 19:15 52.97449 1.03301 32148 ft 499 kts 100°
2026-04-21 19:15 52.96999 1.07036 32287 ft 498 kts 99°
2026-04-21 19:15 52.96367 1.12652 32489 ft 498 kts 98°
2026-04-21 19:15 52.95737 1.18343 32714 ft 497 kts 98°
2026-04-21 19:16 52.95108 1.23964 32939 ft 496 kts 99°
2026-04-21 19:16 52.94468 1.29587 33131 ft 496 kts 99°
2026-04-21 19:16 52.93817 1.35203 33304 ft 497 kts 99°
2026-04-21 19:17 52.91815 1.52103 33376 ft 497 kts 99°
2026-04-21 19:17 52.90467 1.63322 33384 ft 493 kts 99°
2026-04-21 19:18 52.89124 1.74426 33388 ft 491 kts 99°
2026-04-21 19:18 52.87779 1.85473 33382 ft 488 kts 99°
2026-04-21 19:19 52.86427 1.96486 33379 ft 487 kts 99°
2026-04-21 19:19 52.85023 2.07446 33385 ft 487 kts 100°
2026-04-21 19:20 52.83568 2.18390 33381 ft 487 kts 100°
2026-04-21 19:20 52.82108 2.29337 33380 ft 487 kts 100°
2026-04-21 19:21 52.80643 2.40296 33375 ft 487 kts 100°
2026-04-21 19:21 52.79186 2.51143 33375 ft 487 kts 100°
2026-04-21 19:22 52.77706 2.62080 33370 ft 487 kts 100°
2026-04-21 19:22 52.76218 2.72980 33369 ft 486 kts 101°
2026-04-21 19:23 52.74726 2.83849 33368 ft 485 kts 101°
2026-04-21 19:23 52.73222 2.94711 33369 ft 484 kts 101°
2026-04-21 19:24 52.71716 3.05512 33366 ft 482 kts 101°
2026-04-21 19:24 52.70204 3.16273 33359 ft 481 kts 101°
2026-04-21 19:25 52.68695 3.26934 33357 ft 480 kts 101°
2026-04-21 19:25 52.67171 3.37635 33354 ft 478 kts 101°
2026-04-21 19:26 52.65645 3.48280 33350 ft 476 kts 101°
2026-04-21 19:26 52.64135 3.58738 33353 ft 474 kts 102°
2026-04-21 19:27 52.62608 3.69237 33345 ft 472 kts 101°
2026-04-21 19:27 52.61068 3.79753 33345 ft 470 kts 102°
2026-04-21 19:28 52.59541 3.90119 33575 ft 467 kts 102°
2026-04-21 19:28 52.58774 3.95301 33907 ft 465 kts 102°
2026-04-21 19:28 52.58008 4.00461 34090 ft 466 kts 102°
2026-04-21 19:29 52.57234 4.05643 34304 ft 466 kts 102°
2026-04-21 19:29 52.56463 4.10803 34467 ft 466 kts 102°
2026-04-21 19:29 52.55686 4.15976 34642 ft 467 kts 102°
2026-04-21 19:29 52.54903 4.21178 34779 ft 468 kts 102°
2026-04-21 19:30 52.54119 4.26366 34901 ft 469 kts 102°
2026-04-21 19:30 52.53329 4.31576 35036 ft 470 kts 102°
2026-04-21 19:30 52.52557 4.36659 35144 ft 471 kts 102°
2026-04-21 19:30 52.51758 4.41905 35225 ft 473 kts 102°
2026-04-21 19:31 52.50148 4.52409 35310 ft 477 kts 102°
2026-04-21 19:31 52.48513 4.63013 35338 ft 481 kts 102°
2026-04-21 19:32 52.46862 4.73639 35330 ft 483 kts 103°
2026-04-21 19:32 52.45203 4.84245 35314 ft 475 kts 103°
2026-04-21 19:33 52.43561 4.94676 35323 ft 471 kts 103°
2026-04-21 19:33 52.41918 5.05060 35323 ft 470 kts 103°
2026-04-21 19:34 52.40268 5.15425 35323 ft 470 kts 103°
2026-04-21 19:34 52.38609 5.25777 35324 ft 470 kts 103°
2026-04-21 19:35 52.36099 5.41318 35324 ft 472 kts 103°
2026-04-21 19:36 52.34409 5.51706 35323 ft 472 kts 103°
2026-04-21 19:36 52.32706 5.62100 35322 ft 473 kts 103°
2026-04-21 19:37 52.30995 5.72489 35321 ft 473 kts 104°
2026-04-21 19:37 52.29289 5.82780 35320 ft 472 kts 104°
2026-04-21 19:38 52.27564 5.93123 35321 ft 472 kts 104°
2026-04-21 19:38 52.26112 6.01780 35320 ft 471 kts 104°
2026-04-21 19:39 52.24094 6.13742 35321 ft 470 kts 104°
2026-04-21 19:39 52.22352 6.24004 35318 ft 468 kts 104°
2026-04-21 19:40 52.20605 6.34233 35318 ft 468 kts 104°
2026-04-21 19:40 52.18854 6.44429 35319 ft 467 kts 104°
2026-04-21 19:41 52.17096 6.54607 35318 ft 466 kts 104°
2026-04-21 19:41 52.15332 6.64766 35319 ft 466 kts 104°
2026-04-21 19:42 52.13574 6.74837 35320 ft 465 kts 104°
2026-04-21 19:42 52.11844 6.84984 35319 ft 465 kts 103°
2026-04-21 19:43 52.10168 6.95152 35327 ft 465 kts 103°
2026-04-21 19:43 52.08484 7.05317 35319 ft 465 kts 103°
2026-04-21 19:44 52.06781 7.15480 35314 ft 465 kts 103°
2026-04-21 19:44 52.05063 7.25639 35317 ft 466 kts 104°
2026-04-21 19:45 52.03349 7.35714 35316 ft 466 kts 104°
2026-04-21 19:45 52.01612 7.45865 35312 ft 466 kts 104°
2026-04-21 19:46 51.99879 7.55940 35319 ft 465 kts 104°
2026-04-21 19:46 51.98129 7.66051 35316 ft 465 kts 104°
2026-04-21 19:47 51.96372 7.76149 35313 ft 465 kts 104°
2026-04-21 19:47 51.94609 7.86219 35319 ft 465 kts 104°
2026-04-21 19:48 51.92832 7.96312 35305 ft 464 kts 104°
2026-04-21 19:48 51.91065 8.06299 35306 ft 464 kts 104°
2026-04-21 19:49 51.89275 8.16353 35304 ft 464 kts 104°
2026-04-21 19:49 51.87478 8.26392 35300 ft 464 kts 104°
2026-04-21 19:50 51.85977 8.34735 35299 ft 464 kts 104°
2026-04-21 19:50 51.83871 8.46378 35299 ft 463 kts 104°
2026-04-21 19:51 51.82055 8.56361 35300 ft 463 kts 104°
2026-04-21 19:51 51.80226 8.66356 35296 ft 463 kts 104°
2026-04-21 19:52 51.78389 8.76339 35299 ft 463 kts 104°
2026-04-21 19:52 51.76546 8.86307 35296 ft 463 kts 104°
2026-04-21 19:53 51.74696 8.96255 35301 ft 463 kts 104°
2026-04-21 19:53 51.72835 9.06219 35299 ft 463 kts 104°
2026-04-21 19:54 51.71192 9.16230 35301 ft 463 kts 102°
2026-04-21 19:54 51.69664 9.26340 35297 ft 463 kts 102°
2026-04-21 19:55 51.68109 9.36418 35300 ft 463 kts 102°
2026-04-21 19:55 51.66530 9.46395 35295 ft 463 kts 102°
2026-04-21 19:56 51.64918 9.56434 35295 ft 463 kts 102°
2026-04-21 19:56 51.63293 9.66485 35295 ft 463 kts 102°
2026-04-21 19:57 51.61664 9.76509 35295 ft 463 kts 102°
2026-04-21 19:57 51.60022 9.86555 35295 ft 463 kts 102°
2026-04-21 19:58 51.58653 9.94891 35298 ft 463 kts 103°
2026-04-21 19:58 51.56728 10.06540 35295 ft 463 kts 103°
2026-04-21 19:59 51.55334 10.14925 35299 ft 464 kts 103°
2026-04-21 19:59 51.53662 10.24928 35291 ft 464 kts 103°
2026-04-21 20:00 51.51980 10.34935 35302 ft 464 kts 103°
2026-04-21 20:00 51.50302 10.44859 35293 ft 464 kts 103°
2026-04-21 20:01 51.48602 10.54856 35298 ft 464 kts 103°
2026-04-21 20:01 51.46897 10.64833 35298 ft 464 kts 103°
2026-04-21 20:02 51.45178 10.74824 35302 ft 464 kts 103°
2026-04-21 20:02 51.43453 10.84799 35297 ft 464 kts 103°
2026-04-21 20:03 51.41720 10.94762 35298 ft 465 kts 103°
2026-04-21 20:03 51.39975 11.04736 35292 ft 465 kts 103°
2026-04-21 20:04 51.38224 11.14690 35296 ft 464 kts 103°
2026-04-21 20:04 51.36466 11.24629 35298 ft 464 kts 103°
2026-04-21 20:05 51.34697 11.34572 35290 ft 464 kts 103°
2026-04-21 20:05 51.32922 11.44495 35290 ft 464 kts 103°
2026-04-21 20:06 51.31139 11.54409 35294 ft 464 kts 103°
2026-04-21 20:06 51.29360 11.64252 35277 ft 464 kts 103°
2026-04-21 20:07 51.27556 11.74170 35283 ft 464 kts 103°
2026-04-21 20:07 51.25749 11.84056 35284 ft 464 kts 104°
2026-04-21 20:08 51.23931 11.93949 35288 ft 465 kts 104°
2026-04-21 20:08 51.22105 12.03834 35286 ft 465 kts 104°
2026-04-21 20:09 51.20267 12.13727 35285 ft 465 kts 104°
2026-04-21 20:09 51.18422 12.23608 35288 ft 465 kts 104°
2026-04-21 20:10 51.16562 12.33514 35274 ft 466 kts 104°
2026-04-21 20:10 51.14694 12.43410 35273 ft 466 kts 104°
2026-04-21 20:11 51.12820 12.53291 35269 ft 466 kts 104°
2026-04-21 20:11 51.11158 12.62005 35269 ft 467 kts 104°
2026-04-21 20:12 51.09265 12.71886 35269 ft 467 kts 104°
2026-04-21 20:12 51.07360 12.81776 35273 ft 467 kts 104°
2026-04-21 20:13 51.05458 12.91597 35271 ft 468 kts 104°
2026-04-21 20:13 51.03538 13.01466 35274 ft 468 kts 104°
2026-04-21 20:14 51.01606 13.11341 35269 ft 468 kts 105°
2026-04-21 20:14 50.99666 13.21211 35273 ft 468 kts 105°
2026-04-21 20:15 50.97713 13.31090 35270 ft 468 kts 105°
2026-04-21 20:15 50.95756 13.40945 35267 ft 469 kts 105°
2026-04-21 20:16 50.93789 13.50800 35266 ft 469 kts 105°
2026-04-21 20:16 50.91812 13.60653 35263 ft 469 kts 105°
2026-04-21 20:17 50.89839 13.70441 35263 ft 469 kts 105°
2026-04-21 20:17 50.87842 13.80296 35264 ft 470 kts 105°
2026-04-21 20:18 50.86176 13.88486 35258 ft 470 kts 105°
2026-04-21 20:18 50.82901 13.99362 35259 ft 476 kts 127°
2026-04-21 20:19 50.77850 14.06181 35260 ft 483 kts 146°
2026-04-21 20:19 50.72050 14.11599 35255 ft 485 kts 147°
2026-04-21 20:20 50.66220 14.17032 35253 ft 488 kts 146°
2026-04-21 20:20 50.60526 14.22431 35241 ft 489 kts 146°
2026-04-21 20:21 50.55187 14.28952 35249 ft 483 kts 129°
2026-04-21 20:21 50.51413 14.37593 35241 ft 478 kts 116°
2026-04-21 20:22 50.48286 14.46838 35245 ft 479 kts 116°
2026-04-21 20:22 50.43541 14.60688 35244 ft 481 kts 116°
2026-04-21 20:23 50.40344 14.69861 35247 ft 481 kts 116°
2026-04-21 20:23 50.37120 14.79053 35229 ft 481 kts 116°
2026-04-21 20:24 50.33888 14.88233 35227 ft 481 kts 117°
2026-04-21 20:24 50.30648 14.97408 35223 ft 481 kts 117°
2026-04-21 20:25 50.27403 15.06565 35224 ft 481 kts 117°
2026-04-21 20:25 50.24151 15.15709 35218 ft 481 kts 117°
2026-04-21 20:26 50.20918 15.24769 35215 ft 481 kts 117°
2026-04-21 20:26 50.17655 15.33880 35211 ft 481 kts 117°
2026-04-21 20:27 50.14381 15.42990 35211 ft 481 kts 117°
2026-04-21 20:27 50.11096 15.52099 35212 ft 481 kts 117°
2026-04-21 20:28 50.07807 15.61186 35214 ft 482 kts 117°
2026-04-21 20:28 50.04504 15.70277 35212 ft 482 kts 117°
2026-04-21 20:29 50.01196 15.79353 35214 ft 483 kts 117°
2026-04-21 20:29 49.97891 15.88388 35214 ft 484 kts 117°
2026-04-21 20:30 49.94554 15.97478 35213 ft 484 kts 118°
2026-04-21 20:30 49.91212 16.06551 35211 ft 485 kts 118°
2026-04-21 20:31 49.87853 16.15638 35211 ft 486 kts 118°
2026-04-21 20:31 49.84482 16.24726 35212 ft 487 kts 118°
2026-04-21 20:32 49.81094 16.33826 35211 ft 487 kts 118°
2026-04-21 20:32 49.77695 16.42924 35210 ft 488 kts 118°
2026-04-21 20:33 49.74309 16.51955 35206 ft 488 kts 118°
2026-04-21 20:33 49.70896 16.61028 35210 ft 489 kts 118°
2026-04-21 20:34 49.67465 16.70118 35204 ft 489 kts 118°
2026-04-21 20:34 49.64030 16.79184 35204 ft 490 kts 119°
2026-04-21 20:35 49.60581 16.88258 35197 ft 490 kts 119°
2026-04-21 20:35 49.57144 16.97269 35200 ft 490 kts 119°
2026-04-21 20:36 49.53674 17.06335 35194 ft 491 kts 119°
2026-04-21 20:36 49.50197 17.15388 35193 ft 491 kts 119°
2026-04-21 20:37 49.46712 17.24430 35189 ft 492 kts 119°
2026-04-21 20:37 49.43211 17.33483 35189 ft 492 kts 119°
2026-04-21 20:38 49.39704 17.42520 35188 ft 493 kts 120°
2026-04-21 20:38 49.36184 17.51558 35185 ft 493 kts 120°
2026-04-21 20:39 49.32705 17.60574 35182 ft 493 kts 116°
2026-04-21 20:39 49.29864 17.70127 35184 ft 493 kts 112°
2026-04-21 20:40 49.27143 17.79785 35186 ft 493 kts 112°
2026-04-21 20:40 49.24391 17.89416 35187 ft 494 kts 112°
2026-04-21 20:41 49.21599 17.99036 35190 ft 495 kts 112°
2026-04-21 20:41 49.18781 18.08669 35188 ft 495 kts 113°
2026-04-21 20:42 49.15958 18.18282 35172 ft 496 kts 113°
2026-04-21 20:42 49.13145 18.27831 35182 ft 496 kts 113°
2026-04-21 20:43 49.10306 18.37430 35162 ft 496 kts 113°
2026-04-21 20:43 49.07455 18.47033 35164 ft 496 kts 113°
2026-04-21 20:44 49.04597 18.56621 35165 ft 497 kts 113°
2026-04-21 20:44 49.02218 18.64574 35169 ft 497 kts 113°
2026-04-21 20:45 48.99339 18.74165 35165 ft 498 kts 114°
2026-04-21 20:45 48.96433 18.83819 35177 ft 505 kts 114°
2026-04-21 20:46 48.93484 18.93573 35183 ft 510 kts 114°
2026-04-21 20:46 48.90497 19.03407 35180 ft 514 kts 114°
2026-04-21 20:47 48.87493 19.13253 35169 ft 515 kts 114°
2026-04-21 20:47 48.84484 19.23077 35159 ft 509 kts 114°
2026-04-21 20:48 48.81503 19.32770 35161 ft 506 kts 114°
2026-04-21 20:48 48.78522 19.42429 35165 ft 505 kts 114°
2026-04-21 20:49 48.75528 19.52094 35161 ft 505 kts 114°
2026-04-21 20:49 48.72550 19.61667 35163 ft 507 kts 114°
2026-04-21 20:50 48.69531 19.71335 35160 ft 509 kts 114°
2026-04-21 20:50 48.66495 19.81020 35158 ft 510 kts 114°
2026-04-21 20:51 48.63438 19.90735 35155 ft 512 kts 115°
2026-04-21 20:51 48.60365 20.00462 35148 ft 513 kts 115°
2026-04-21 20:52 48.57295 20.10143 35141 ft 514 kts 115°
2026-04-21 20:52 48.54176 20.19940 35137 ft 515 kts 115°
2026-04-21 20:53 48.51085 20.29610 35136 ft 515 kts 115°
2026-04-21 20:53 48.47965 20.39334 35131 ft 516 kts 115°
2026-04-21 20:54 48.44831 20.49064 35128 ft 516 kts 115°
2026-04-21 20:54 48.41691 20.58777 35121 ft 516 kts 115°
2026-04-21 20:55 48.38539 20.68489 35119 ft 516 kts 115°
2026-04-21 20:55 48.35379 20.78186 35116 ft 516 kts 115°
2026-04-21 20:56 48.32207 20.87884 35112 ft 516 kts 115°
2026-04-21 20:56 48.29048 20.97508 35105 ft 517 kts 116°
2026-04-21 20:57 48.25865 21.07165 35104 ft 517 kts 116°
2026-04-21 20:57 48.22665 21.16841 35100 ft 517 kts 116°
2026-04-21 20:58 48.19455 21.26507 35099 ft 517 kts 116°
2026-04-21 20:58 48.16242 21.36149 35094 ft 518 kts 116°
2026-04-21 20:59 48.13012 21.45804 35099 ft 518 kts 116°
2026-04-21 20:59 48.09770 21.55458 35098 ft 518 kts 116°
2026-04-21 21:00 48.06546 21.65023 35102 ft 519 kts 116°
2026-04-21 21:00 48.03288 21.74652 35102 ft 519 kts 116°
2026-04-21 21:01 48.00020 21.84276 35104 ft 519 kts 116°
2026-04-21 21:01 47.96736 21.93912 35099 ft 520 kts 116°
2026-04-21 21:02 47.93447 22.03526 35097 ft 520 kts 117°
2026-04-21 21:02 47.90165 22.13084 35088 ft 521 kts 117°
2026-04-21 21:03 47.86849 22.22705 35090 ft 522 kts 117°
2026-04-21 21:03 47.83524 22.32324 35091 ft 522 kts 117°
2026-04-21 21:04 47.80161 22.41908 35090 ft 522 kts 120°
2026-04-21 21:04 47.76032 22.50795 35103 ft 522 kts 129°
2026-04-21 21:05 47.71463 22.59179 35093 ft 523 kts 129°
2026-04-21 21:05 47.66888 22.67573 35102 ft 523 kts 129°
2026-04-21 21:06 47.62363 22.75943 35101 ft 523 kts 129°
2026-04-21 21:06 47.57811 22.84382 35105 ft 524 kts 129°
2026-04-21 21:07 47.53252 22.92810 35101 ft 524 kts 129°
2026-04-21 21:07 47.48687 23.01219 35098 ft 524 kts 129°
2026-04-21 21:08 47.44100 23.09636 35093 ft 525 kts 129°
2026-04-21 21:08 47.39512 23.18030 35090 ft 525 kts 129°
2026-04-21 21:09 47.34953 23.26346 35082 ft 525 kts 130°
2026-04-21 21:09 47.30352 23.34712 35093 ft 525 kts 130°
2026-04-21 21:10 47.25741 23.43072 35092 ft 525 kts 130°
2026-04-21 21:10 47.21124 23.51417 35087 ft 525 kts 130°
2026-04-21 21:11 47.16532 23.59691 35090 ft 525 kts 130°
2026-04-21 21:11 47.11909 23.67996 35086 ft 525 kts 130°
2026-04-21 21:12 47.07269 23.76305 35083 ft 526 kts 130°
2026-04-21 21:12 47.02621 23.84603 35083 ft 526 kts 130°
2026-04-21 21:13 46.97971 23.92882 35078 ft 526 kts 130°
2026-04-21 21:13 46.93306 24.01160 35078 ft 526 kts 130°
2026-04-21 21:14 46.88640 24.09417 35077 ft 527 kts 131°
2026-04-21 21:14 46.83962 24.17670 35072 ft 527 kts 131°
2026-04-21 21:15 46.79280 24.25903 35073 ft 527 kts 131°
2026-04-21 21:15 46.74593 24.34123 35072 ft 527 kts 131°
2026-04-21 21:16 46.69888 24.42348 35074 ft 527 kts 131°
2026-04-21 21:16 46.65212 24.50500 35072 ft 527 kts 131°
2026-04-21 21:17 46.60498 24.58692 35071 ft 527 kts 131°
2026-04-21 21:17 46.55783 24.66862 35074 ft 527 kts 131°
2026-04-21 21:18 46.51057 24.75026 35070 ft 528 kts 131°
2026-04-21 21:18 46.46323 24.83180 35072 ft 528 kts 132°
2026-04-21 21:19 46.41575 24.91333 35072 ft 529 kts 132°
2026-04-21 21:19 46.36817 24.99481 35064 ft 530 kts 132°
2026-04-21 21:20 46.32081 25.07566 35068 ft 530 kts 132°
2026-04-21 21:20 46.27308 25.15691 35070 ft 531 kts 132°
2026-04-21 21:21 46.22516 25.23825 35071 ft 531 kts 132°
2026-04-21 21:21 46.17714 25.31949 35071 ft 532 kts 133°
2026-04-21 21:22 46.12904 25.40066 35069 ft 533 kts 133°
2026-04-21 21:22 46.08079 25.48184 35072 ft 533 kts 133°
2026-04-21 21:23 46.03244 25.56293 35065 ft 533 kts 133°
2026-04-21 21:23 45.98407 25.64384 35059 ft 534 kts 133°
2026-04-21 21:24 45.93553 25.72477 35059 ft 534 kts 133°
2026-04-21 21:24 45.88691 25.80561 35074 ft 534 kts 133°
2026-04-21 21:25 45.83825 25.88627 35075 ft 535 kts 133°
2026-04-21 21:25 45.78955 25.96678 35080 ft 535 kts 133°
2026-04-21 21:26 45.74094 26.04689 35087 ft 536 kts 133°
2026-04-21 21:26 45.69197 26.12737 35088 ft 536 kts 134°
2026-04-21 21:27 45.64291 26.20777 35087 ft 537 kts 134°
2026-04-21 21:27 45.59373 26.28813 35085 ft 537 kts 134°
2026-04-21 21:28 45.54448 26.36837 35087 ft 537 kts 134°
2026-04-21 21:29 45.47047 26.48851 35086 ft 537 kts 134°
2026-04-21 21:29 45.42125 26.56813 35083 ft 538 kts 134°
2026-04-21 21:30 45.37183 26.64784 35084 ft 538 kts 134°
2026-04-21 21:30 45.32227 26.72755 35082 ft 538 kts 134°
2026-04-21 21:31 45.27265 26.80711 35079 ft 538 kts 134°
2026-04-21 21:31 45.22290 26.88666 35075 ft 538 kts 135°
2026-04-21 21:32 45.18152 26.95267 35075 ft 538 kts 135°
2026-04-21 21:32 45.13173 27.03187 35071 ft 539 kts 135°
2026-04-21 21:33 45.08181 27.11104 35066 ft 539 kts 135°
2026-04-21 21:33 45.03182 27.19012 35065 ft 539 kts 135°
2026-04-21 21:34 44.98170 27.26918 35065 ft 539 kts 135°
2026-04-21 21:34 44.93162 27.34793 35065 ft 539 kts 135°
2026-04-21 21:35 44.88174 27.42616 35071 ft 539 kts 136°
2026-04-21 21:35 44.83151 27.50471 35060 ft 539 kts 136°
2026-04-21 21:36 44.78118 27.58320 35074 ft 540 kts 136°
2026-04-21 21:36 44.73080 27.66155 35065 ft 540 kts 136°
2026-04-21 21:37 44.68026 27.73994 35068 ft 540 kts 136°
2026-04-21 21:37 44.62975 27.81804 35070 ft 540 kts 136°
2026-04-21 21:38 44.57918 27.89602 35067 ft 540 kts 136°
2026-04-21 21:38 44.52854 27.97390 35072 ft 540 kts 137°
2026-04-21 21:39 44.47787 28.05159 35069 ft 540 kts 137°
2026-04-21 21:39 44.42743 28.12874 35073 ft 541 kts 137°
2026-04-21 21:40 44.37657 28.20630 35069 ft 541 kts 137°
2026-04-21 21:40 44.32559 28.28383 35076 ft 542 kts 137°
2026-04-21 21:41 44.27450 28.36133 35074 ft 542 kts 137°
2026-04-21 21:41 44.22331 28.43877 35071 ft 543 kts 137°
2026-04-21 21:42 44.17190 28.51630 35070 ft 543 kts 138°
2026-04-21 21:42 44.12081 28.59316 35069 ft 544 kts 138°
2026-04-21 21:43 44.06938 28.67031 35068 ft 544 kts 138°
2026-04-21 21:43 44.01777 28.74752 35068 ft 544 kts 138°
2026-04-21 21:44 43.96614 28.82454 35068 ft 545 kts 138°
2026-04-21 21:44 43.91442 28.90149 35073 ft 545 kts 139°
2026-04-21 21:45 43.86267 28.97828 35070 ft 545 kts 139°
2026-04-21 21:45 43.81083 29.05498 35067 ft 544 kts 139°
2026-04-21 21:46 43.75935 29.13095 35069 ft 544 kts 139°
2026-04-21 21:46 43.70751 29.20724 35072 ft 544 kts 139°
2026-04-21 21:47 43.65561 29.28341 35070 ft 544 kts 139°
2026-04-21 21:47 43.60370 29.35939 35071 ft 544 kts 139°
2026-04-21 21:48 43.55180 29.43515 35081 ft 543 kts 139°
2026-04-21 21:48 43.49974 29.51094 35074 ft 543 kts 139°
2026-04-21 21:49 43.44767 29.58655 35069 ft 543 kts 139°
2026-04-21 21:49 43.39590 29.66152 35064 ft 543 kts 139°
2026-04-21 21:50 43.34378 29.73679 35066 ft 543 kts 139°
2026-04-21 21:50 43.29168 29.81184 35065 ft 542 kts 139°
2026-04-21 21:51 43.23990 29.88623 35064 ft 541 kts 139°
2026-04-21 21:51 43.18792 29.96071 35062 ft 540 kts 139°
2026-04-21 21:52 43.13584 30.03514 35064 ft 539 kts 139°
2026-04-21 21:52 43.08395 30.10911 35065 ft 538 kts 139°
2026-04-21 21:53 43.03205 30.18288 35062 ft 537 kts 139°
2026-04-21 21:53 42.98027 30.25631 35058 ft 536 kts 139°
2026-04-21 21:54 42.92857 30.32944 35058 ft 535 kts 139°
2026-04-21 21:54 42.87721 30.40189 35056 ft 534 kts 139°
2026-04-21 21:55 42.82559 30.47455 35054 ft 533 kts 139°
2026-04-21 21:55 42.77431 30.54757 35045 ft 535 kts 134°
2026-04-21 21:56 42.73428 30.63359 35068 ft 543 kts 117°
2026-04-21 21:56 42.71054 30.73128 35068 ft 547 kts 106°
2026-04-21 21:57 42.69205 30.83174 35057 ft 548 kts 105°
2026-04-21 21:57 42.67316 30.93216 35055 ft 548 kts 106°
2026-04-21 21:58 42.65354 31.03228 35053 ft 548 kts 107°
2026-04-21 21:58 42.63359 31.13227 35054 ft 549 kts 107°
2026-04-21 21:59 42.61369 31.23167 35054 ft 549 kts 107°
2026-04-21 21:59 42.59365 31.33151 35047 ft 549 kts 107°
2026-04-21 22:00 42.57352 31.43142 35050 ft 548 kts 107°
2026-04-21 22:00 42.55331 31.53125 35047 ft 548 kts 107°
2026-04-21 22:01 42.53304 31.63080 35048 ft 548 kts 107°
2026-04-21 22:01 42.51268 31.73036 35049 ft 547 kts 107°
2026-04-21 22:02 42.49227 31.82967 35044 ft 547 kts 107°
2026-04-21 22:02 42.47180 31.92876 35046 ft 546 kts 107°
2026-04-21 22:03 42.45138 32.02715 35042 ft 545 kts 107°
2026-04-21 22:03 42.43076 32.12601 35046 ft 545 kts 107°
2026-04-21 22:04 42.41010 32.22464 35043 ft 545 kts 107°
2026-04-21 22:04 42.38932 32.32337 35041 ft 545 kts 107°
2026-04-21 22:05 42.36845 32.42204 35043 ft 545 kts 108°
2026-04-21 22:05 42.34752 32.52063 35036 ft 544 kts 108°
2026-04-21 22:06 42.32891 32.61982 35043 ft 545 kts 100°
2026-04-21 22:06 42.31758 32.72123 35030 ft 545 kts 99°
2026-04-21 22:07 42.30681 32.82194 35037 ft 544 kts 99°
2026-04-21 22:07 42.29547 32.92288 35033 ft 544 kts 99°
2026-04-21 22:08 42.28375 33.02388 35030 ft 544 kts 99°
2026-04-21 22:08 42.27193 33.12474 35031 ft 543 kts 100°
2026-04-21 22:09 42.26006 33.22545 35030 ft 543 kts 100°
2026-04-21 22:09 42.24814 33.32603 35026 ft 542 kts 100°
2026-04-21 22:10 42.23615 33.42641 35024 ft 541 kts 100°
2026-04-21 22:10 42.22417 33.52597 35021 ft 541 kts 100°
2026-04-21 22:11 42.21202 33.62611 35020 ft 540 kts 100°
2026-04-21 22:11 42.19983 33.72597 35018 ft 539 kts 100°
2026-04-21 22:12 42.18758 33.82555 35017 ft 538 kts 101°
2026-04-21 22:12 42.17525 33.92500 35016 ft 537 kts 101°
2026-04-21 22:13 42.16288 34.02418 35016 ft 536 kts 101°
2026-04-21 22:13 42.15053 34.12259 35011 ft 535 kts 101°
2026-04-21 22:14 42.13804 34.22143 35012 ft 535 kts 101°
2026-04-21 22:14 42.12546 34.32018 35014 ft 534 kts 101°
2026-04-21 22:15 42.11284 34.41877 35010 ft 534 kts 101°
2026-04-21 22:15 42.09967 34.51720 35007 ft 533 kts 102°
2026-04-21 22:16 42.08593 34.61536 35007 ft 533 kts 102°
2026-04-21 22:16 42.07222 34.71347 35006 ft 533 kts 102°
2026-04-21 22:17 42.05855 34.81142 35007 ft 533 kts 102°
2026-04-21 22:17 42.04499 34.90943 35004 ft 532 kts 101°
2026-04-21 22:18 42.03223 35.00687 34997 ft 532 kts 101°
2026-04-21 22:18 42.02067 35.10512 35005 ft 532 kts 95°
2026-04-21 22:19 42.01616 35.18829 35006 ft 532 kts 94°
2026-04-21 22:19 42.01150 35.28740 34996 ft 531 kts 94°
2026-04-21 22:20 42.00650 35.38646 34996 ft 531 kts 95°
2026-04-21 22:20 42.00114 35.48473 34996 ft 530 kts 95°
2026-04-21 22:21 41.99558 35.58353 34995 ft 529 kts 95°
2026-04-21 22:21 41.98995 35.68231 34990 ft 529 kts 95°
2026-04-21 22:22 41.98428 35.78083 34990 ft 528 kts 95°
2026-04-21 22:22 41.97853 35.87933 34991 ft 528 kts 95°
2026-04-21 22:23 41.97270 35.97772 34991 ft 527 kts 95°
2026-04-21 22:23 41.96684 36.07521 34993 ft 527 kts 95°
2026-04-21 22:24 41.96085 36.17341 34989 ft 527 kts 95°
2026-04-21 22:24 41.95478 36.27160 34994 ft 527 kts 95°
2026-04-21 22:25 41.94862 36.36984 34992 ft 527 kts 95°
2026-04-21 22:25 41.94243 36.46727 34989 ft 527 kts 95°
2026-04-21 22:26 41.93611 36.56528 34987 ft 527 kts 95°
2026-04-21 22:26 41.92970 36.66347 34990 ft 526 kts 95°
2026-04-21 22:27 41.92322 36.76152 34988 ft 526 kts 95°
2026-04-21 22:27 41.91670 36.85879 34988 ft 526 kts 95°
2026-04-21 22:28 41.91008 36.95661 34988 ft 526 kts 95°
2026-04-21 22:28 41.89799 37.05323 34990 ft 524 kts 105°
2026-04-21 22:29 41.87375 37.14533 34987 ft 523 kts 114°
2026-04-21 22:29 41.84501 37.23426 34986 ft 522 kts 115°
2026-04-21 22:30 41.81630 37.32377 34983 ft 523 kts 114°
2026-04-21 22:30 41.78790 37.41355 34990 ft 523 kts 114°
2026-04-21 22:31 41.75953 37.50324 34988 ft 523 kts 114°
2026-04-21 22:31 41.73110 37.59271 34994 ft 523 kts 114°
2026-04-21 22:32 41.70252 37.68223 34994 ft 522 kts 114°
2026-04-21 22:32 41.67380 37.77161 34991 ft 522 kts 114°
2026-04-21 22:33 41.64503 37.86077 34991 ft 522 kts 114°
2026-04-21 22:33 41.61648 37.94906 34990 ft 521 kts 115°
2026-04-21 22:34 41.58762 38.03804 34992 ft 520 kts 115°
2026-04-21 22:34 41.55881 38.12660 34991 ft 519 kts 115°
2026-04-21 22:35 41.52994 38.21504 34992 ft 518 kts 115°
2026-04-21 22:35 41.50125 38.30263 34984 ft 518 kts 115°
2026-04-21 22:36 41.45789 38.43452 34991 ft 516 kts 115°
2026-04-21 22:36 41.42893 38.52224 34988 ft 516 kts 115°
2026-04-21 22:37 41.40015 38.60917 34986 ft 515 kts 115°
2026-04-21 22:37 41.37120 38.69633 34986 ft 514 kts 115°
2026-04-21 22:38 41.34215 38.78353 34992 ft 514 kts 115°
2026-04-21 22:38 41.31336 38.87083 35093 ft 516 kts 115°
2026-04-21 22:39 41.29906 38.91460 35246 ft 515 kts 115°
2026-04-21 22:39 41.28478 38.95825 35415 ft 515 kts 115°
2026-04-21 22:39 41.27046 39.00193 35531 ft 515 kts 115°
2026-04-21 22:39 41.25629 39.04498 35649 ft 516 kts 115°
2026-04-21 22:40 41.24187 39.08870 35772 ft 516 kts 115°
2026-04-21 22:40 41.22746 39.13232 35886 ft 516 kts 115°
2026-04-21 22:40 41.21299 39.17601 36017 ft 516 kts 115°
2026-04-21 22:40 41.19820 39.21948 36133 ft 516 kts 116°
2026-04-21 22:41 41.18313 39.26263 36245 ft 517 kts 116°
2026-04-21 22:41 41.16786 39.30594 36363 ft 517 kts 117°
2026-04-21 22:41 41.15259 39.34917 36487 ft 517 kts 116°
2026-04-21 22:41 41.13736 39.39241 36583 ft 517 kts 116°
2026-04-21 22:42 41.10692 39.47904 36811 ft 517 kts 116°
2026-04-21 22:42 41.07672 39.56495 36947 ft 519 kts 117°
2026-04-21 22:43 41.04610 39.65178 36989 ft 521 kts 117°
2026-04-21 22:43 41.01569 39.73907 36993 ft 522 kts 113°
2026-04-21 22:44 40.99617 39.83188 37002 ft 525 kts 101°
2026-04-21 22:44 40.99046 39.92833 37002 ft 526 kts 92°
2026-04-21 22:45 40.98922 40.02518 36996 ft 525 kts 92°
2026-04-21 22:45 40.98720 40.12119 36998 ft 524 kts 92°
2026-04-21 22:46 40.98466 40.21746 36999 ft 522 kts 93°
2026-04-21 22:46 40.98207 40.31343 36998 ft 521 kts 93°
2026-04-21 22:47 40.97943 40.40920 37004 ft 520 kts 93°
2026-04-21 22:47 40.97670 40.50494 37002 ft 520 kts 93°
2026-04-21 22:48 40.97393 40.60047 37012 ft 519 kts 93°
2026-04-21 22:48 40.97106 40.69587 37022 ft 519 kts 93°
2026-04-21 22:49 40.96814 40.79062 37017 ft 518 kts 93°
2026-04-21 22:49 40.96514 40.88600 37015 ft 519 kts 94°
2026-04-21 22:50 40.96199 40.98144 37023 ft 519 kts 94°
2026-04-21 22:50 40.95875 41.07687 37025 ft 519 kts 94°
2026-04-21 22:51 40.95544 41.17238 37019 ft 520 kts 94°
2026-04-21 22:51 40.95202 41.26798 37011 ft 522 kts 93°
2026-04-21 22:52 40.94854 41.36440 37031 ft 527 kts 93°
2026-04-21 22:52 40.94497 41.46096 37050 ft 530 kts 93°
2026-04-21 22:53 40.94127 41.55842 37063 ft 533 kts 93°
2026-04-21 22:53 40.93746 41.65652 37063 ft 530 kts 93°
2026-04-21 22:54 40.93361 41.75327 37057 ft 524 kts 94°
2026-04-21 22:54 40.92972 41.84943 37073 ft 522 kts 94°
2026-04-21 22:55 40.92579 41.94479 37066 ft 523 kts 94°
2026-04-21 22:55 40.92175 42.04082 37063 ft 523 kts 94°
2026-04-21 22:56 40.91762 42.13684 37078 ft 524 kts 94°
2026-04-21 22:56 40.91340 42.23306 37074 ft 524 kts 94°
2026-04-21 22:57 40.90909 42.32943 37077 ft 525 kts 94°
2026-04-21 22:57 40.90473 42.42529 37066 ft 526 kts 94°
2026-04-21 22:58 40.90025 42.52195 37073 ft 527 kts 94°
2026-04-21 22:58 40.89569 42.61862 37076 ft 527 kts 94°
2026-04-21 22:59 40.89105 42.71536 37071 ft 527 kts 94°
2026-04-21 22:59 40.88633 42.81187 37071 ft 527 kts 94°
2026-04-21 23:00 40.88152 42.90870 37059 ft 527 kts 94°
2026-04-21 23:00 40.87663 43.00532 37057 ft 527 kts 94°
2026-04-21 23:01 40.87167 43.10194 37057 ft 527 kts 95°
2026-04-21 23:01 40.86666 43.19794 37043 ft 527 kts 95°
2026-04-21 23:02 40.86154 43.29450 37053 ft 527 kts 95°
2026-04-21 23:02 40.85633 43.39106 37060 ft 527 kts 95°
2026-04-21 23:03 40.85104 43.48769 37044 ft 527 kts 95°
2026-04-21 23:03 40.84568 43.58424 37054 ft 527 kts 95°
2026-04-21 23:04 40.84027 43.68030 37055 ft 527 kts 95°
2026-04-21 23:04 40.83659 43.77718 37035 ft 527 kts 95°
2026-04-21 23:05 40.83368 43.87376 37040 ft 526 kts 96°
2026-04-21 23:05 40.83048 43.97024 37048 ft 525 kts 96°
2026-04-21 23:06 40.82718 44.06660 37042 ft 524 kts 96°
2026-04-21 23:06 40.82386 44.16209 37034 ft 524 kts 96°
2026-04-21 23:07 40.82044 44.25811 37030 ft 524 kts 96°
2026-04-21 23:07 40.81695 44.35417 37018 ft 524 kts 96°
2026-04-21 23:08 40.81338 44.45030 37016 ft 525 kts 96°
2026-04-21 23:08 40.80973 44.54640 37009 ft 524 kts 96°
2026-04-21 23:09 40.80663 44.62655 37000 ft 525 kts 97°
2026-04-21 23:09 40.80279 44.72274 37000 ft 525 kts 97°
2026-04-21 23:10 40.79825 44.83464 36988 ft 525 kts 97°
2026-04-21 23:10 40.79492 44.91542 36988 ft 525 kts 97°
2026-04-21 23:11 40.79090 45.01106 36998 ft 526 kts 97°
2026-04-21 23:11 40.78678 45.10765 36995 ft 526 kts 97°
2026-04-21 23:12 40.78255 45.20361 36995 ft 527 kts 97°
2026-04-21 23:12 40.77823 45.30029 37002 ft 528 kts 97°
2026-04-21 23:13 40.77385 45.39713 37006 ft 529 kts 97°
2026-04-21 23:13 40.76936 45.49410 36997 ft 529 kts 98°
2026-04-21 23:14 40.76189 45.59037 36996 ft 528 kts 101°
2026-04-21 23:14 40.75285 45.68598 36999 ft 528 kts 101°
2026-04-21 23:15 40.74373 45.78228 36993 ft 529 kts 101°
2026-04-21 23:15 40.73479 45.87875 36985 ft 530 kts 101°
2026-04-21 23:16 40.72587 45.97534 37002 ft 531 kts 101°
2026-04-21 23:16 40.71690 46.07153 36984 ft 531 kts 101°
2026-04-21 23:17 40.70779 46.16819 37001 ft 531 kts 101°
2026-04-21 23:17 40.69857 46.26499 36996 ft 531 kts 101°
2026-04-21 23:18 40.68928 46.36157 36996 ft 531 kts 101°
2026-04-21 23:18 40.67992 46.45814 36979 ft 530 kts 101°
2026-04-21 23:19 40.67049 46.55450 36992 ft 530 kts 101°
2026-04-21 23:19 40.66104 46.65027 36988 ft 530 kts 101°
2026-04-21 23:20 40.65145 46.74665 36978 ft 530 kts 101°
2026-04-21 23:20 40.64180 46.84281 36970 ft 530 kts 101°
2026-04-21 23:21 40.63204 46.93915 36975 ft 530 kts 101°
2026-04-21 23:21 40.62223 47.03533 36971 ft 530 kts 102°
2026-04-21 23:22 40.61239 47.13103 36975 ft 530 kts 102°
2026-04-21 23:22 40.60480 47.22788 36973 ft 534 kts 96°
2026-04-21 23:23 40.60225 47.32568 36979 ft 535 kts 95°
2026-04-21 23:23 40.59994 47.42296 36978 ft 535 kts 95°
2026-04-21 23:24 40.59711 47.52086 36976 ft 536 kts 96°
2026-04-21 23:24 40.59400 47.61900 36970 ft 536 kts 96°
2026-04-21 23:25 40.59081 47.71697 36973 ft 537 kts 96°
2026-04-21 23:25 40.58757 47.81515 36968 ft 537 kts 96°
2026-04-21 23:26 40.58426 47.91344 36976 ft 537 kts 96°
2026-04-21 23:26 40.58061 48.01120 36991 ft 529 kts 95°
2026-04-21 23:27 40.57626 48.10720 36976 ft 524 kts 95°
2026-04-21 23:27 40.57177 48.20228 36981 ft 524 kts 95°
2026-04-21 23:28 40.56731 48.29794 36965 ft 524 kts 95°
2026-04-21 23:28 40.56282 48.39356 36975 ft 524 kts 95°
2026-04-21 23:29 40.55827 48.48926 36974 ft 525 kts 95°
2026-04-21 23:29 40.55362 48.58520 36964 ft 526 kts 95°
2026-04-21 23:30 40.54886 48.68141 36968 ft 526 kts 96°
2026-04-21 23:30 40.54402 48.77758 36964 ft 527 kts 96°
2026-04-21 23:31 40.53914 48.87312 36957 ft 527 kts 96°
2026-04-21 23:31 40.53415 48.96926 36956 ft 527 kts 96°
2026-04-21 23:32 40.52908 49.06544 36949 ft 527 kts 96°
2026-04-21 23:32 40.52393 49.16158 36945 ft 527 kts 96°
2026-04-21 23:33 40.51871 49.25763 36943 ft 527 kts 96°
2026-04-21 23:33 40.51340 49.35389 36947 ft 527 kts 96°
2026-04-21 23:34 40.50805 49.44996 36936 ft 527 kts 96°
2026-04-21 23:34 40.50265 49.54610 36940 ft 528 kts 97°
2026-04-21 23:35 40.49718 49.64226 36934 ft 528 kts 97°
2026-04-21 23:35 40.49162 49.73838 36945 ft 528 kts 97°
2026-04-21 23:36 40.48598 49.83465 36950 ft 528 kts 97°
2026-04-21 23:36 40.48026 49.93094 36932 ft 529 kts 97°
2026-04-21 23:37 40.47202 50.02600 36944 ft 525 kts 105°
2026-04-21 23:37 40.45216 50.11783 36941 ft 520 kts 115°
2026-04-21 23:38 40.42366 50.20481 36939 ft 518 kts 117°
2026-04-21 23:38 40.39455 50.29150 36942 ft 519 kts 117°
2026-04-21 23:39 40.36580 50.37839 36949 ft 519 kts 117°
2026-04-21 23:39 40.33740 50.46478 36953 ft 519 kts 117°
2026-04-21 23:40 40.30873 50.55180 36960 ft 519 kts 117°
2026-04-21 23:40 40.28001 50.63858 36970 ft 519 kts 117°
2026-04-21 23:41 40.25119 50.72537 36980 ft 519 kts 117°
2026-04-21 23:41 40.22236 50.81195 36976 ft 519 kts 117°
2026-04-21 23:42 40.19345 50.89861 36979 ft 519 kts 117°
2026-04-21 23:42 40.16477 50.98481 36994 ft 519 kts 117°
2026-04-21 23:43 40.13591 51.07142 36989 ft 519 kts 118°
2026-04-21 23:43 40.10698 51.15789 36991 ft 520 kts 118°
2026-04-21 23:44 40.07794 51.24442 36989 ft 520 kts 118°
2026-04-21 23:44 40.04884 51.33084 36993 ft 520 kts 118°
2026-04-21 23:45 40.00508 51.46041 36988 ft 520 kts 118°
2026-04-21 23:46 39.98121 51.55004 36996 ft 527 kts 108°
2026-04-21 23:46 39.96438 51.64238 36995 ft 527 kts 107°
2026-04-21 23:47 39.94756 51.73563 36991 ft 527 kts 108°
2026-04-21 23:47 39.93028 51.82852 36992 ft 527 kts 108°
2026-04-21 23:48 39.91270 51.92126 37000 ft 527 kts 108°
2026-04-21 23:48 39.89509 52.01355 37003 ft 527 kts 108°
2026-04-21 23:49 39.87735 52.10627 36994 ft 528 kts 108°
2026-04-21 23:49 39.85956 52.19892 36991 ft 527 kts 108°
2026-04-21 23:50 39.84171 52.29144 36984 ft 527 kts 108°
2026-04-21 23:50 39.82380 52.38388 36983 ft 527 kts 109°
2026-04-21 23:51 39.80582 52.47622 36983 ft 526 kts 109°
2026-04-21 23:51 39.78857 52.56441 36983 ft 526 kts 109°
2026-04-21 23:52 39.77045 52.65664 36986 ft 526 kts 109°
2026-04-21 23:52 39.75231 52.74864 36986 ft 525 kts 109°
2026-04-21 23:53 39.73414 52.84035 36985 ft 525 kts 109°
2026-04-21 23:53 39.71915 52.91677 36977 ft 525 kts 109°
2026-04-21 23:54 39.70070 53.01172 36984 ft 525 kts 109°
2026-04-21 23:54 39.68273 53.10378 36977 ft 525 kts 109°
2026-04-21 23:55 39.66477 53.19517 36978 ft 525 kts 109°
2026-04-21 23:55 39.64661 53.28698 36971 ft 525 kts 109°
2026-04-21 23:56 39.62836 53.37888 36963 ft 526 kts 109°
2026-04-21 23:56 39.61004 53.47077 36955 ft 526 kts 109°
2026-04-21 23:57 39.59177 53.56194 36948 ft 526 kts 109°
2026-04-21 23:57 39.57331 53.65372 36951 ft 526 kts 109°
2026-04-21 23:58 39.55476 53.74553 36954 ft 527 kts 109°
2026-04-21 23:58 39.53613 53.83731 36960 ft 527 kts 109°
2026-04-21 23:59 39.52055 53.91374 36965 ft 527 kts 110°
2026-04-21 23:59 39.50178 54.00555 36964 ft 527 kts 110°
2026-04-22 00:00 39.48283 54.09724 36966 ft 527 kts 110°
2026-04-22 00:00 39.46367 54.18867 36964 ft 526 kts 110°
2026-04-22 00:01 39.44444 54.28014 36967 ft 526 kts 110°
2026-04-22 00:01 39.42519 54.37147 36969 ft 526 kts 110°
2026-04-22 00:02 39.40600 54.46221 36962 ft 526 kts 110°
2026-04-22 00:02 39.38662 54.55342 36965 ft 526 kts 111°
2026-04-22 00:03 39.36715 54.64467 36959 ft 526 kts 111°
2026-04-22 00:03 39.34763 54.73578 36950 ft 526 kts 111°
2026-04-22 00:04 39.32806 54.82673 36956 ft 525 kts 111°
2026-04-22 00:04 39.30853 54.91715 36960 ft 525 kts 111°
2026-04-22 00:05 39.28882 55.00796 36959 ft 525 kts 111°
2026-04-22 00:05 39.26902 55.09888 36954 ft 525 kts 111°
2026-04-22 00:06 39.24918 55.18958 36963 ft 524 kts 111°
2026-04-22 00:06 39.22932 55.28003 36957 ft 524 kts 111°
2026-04-22 00:07 39.20953 55.36979 36956 ft 523 kts 112°
2026-04-22 00:07 39.18954 55.46006 36957 ft 523 kts 112°
2026-04-22 00:08 39.16953 55.55011 36952 ft 522 kts 112°
2026-04-22 00:08 39.14948 55.63993 36965 ft 522 kts 112°
2026-04-22 00:09 39.12930 55.72993 36951 ft 522 kts 112°
2026-04-22 00:09 39.10911 55.81971 36966 ft 522 kts 112°
2026-04-22 00:10 39.08886 55.90942 36955 ft 522 kts 112°
2026-04-22 00:10 39.06867 55.99849 36955 ft 521 kts 112°
2026-04-22 00:11 39.04818 56.08856 36954 ft 521 kts 112°
2026-04-22 00:11 39.02787 56.17747 36949 ft 521 kts 112°
2026-04-22 00:12 39.00742 56.26674 36945 ft 521 kts 112°
2026-04-22 00:12 38.98595 56.35548 36947 ft 518 kts 115°
2026-04-22 00:13 38.96170 56.44245 36942 ft 516 kts 116°
2026-04-22 00:13 38.93707 56.52931 36936 ft 517 kts 116°
2026-04-22 00:14 38.91286 56.61625 36938 ft 517 kts 116°
2026-04-22 00:14 38.88886 56.70315 36928 ft 517 kts 116°
2026-04-22 00:15 38.86479 56.79014 36931 ft 517 kts 116°
2026-04-22 00:15 38.84062 56.87708 36935 ft 517 kts 116°
2026-04-22 00:16 38.81632 56.96408 36923 ft 518 kts 116°
2026-04-22 00:16 38.79209 57.05059 36919 ft 518 kts 116°
2026-04-22 00:17 38.76766 57.13753 36922 ft 519 kts 116°
2026-04-22 00:17 38.74310 57.22462 36919 ft 519 kts 116°
2026-04-22 00:18 38.71849 57.31161 36918 ft 519 kts 116°
2026-04-22 00:18 38.69381 57.39856 36920 ft 520 kts 116°
2026-04-22 00:19 38.66905 57.48555 36919 ft 520 kts 116°
2026-04-22 00:19 38.64422 57.57249 36918 ft 520 kts 116°
2026-04-22 00:20 38.61946 57.65874 36914 ft 519 kts 117°
2026-04-22 00:20 38.59107 57.74329 36914 ft 515 kts 121°
2026-04-22 00:21 38.56134 57.82656 36906 ft 515 kts 121°
2026-04-22 00:21 38.53169 57.90999 36904 ft 515 kts 121°
2026-04-22 00:22 38.50228 57.99341 36907 ft 515 kts 121°
2026-04-22 00:22 38.47280 58.07694 36905 ft 515 kts 121°
2026-04-22 00:23 38.44345 58.15979 36903 ft 515 kts 121°
2026-04-22 00:23 38.41389 58.24300 36899 ft 515 kts 121°
2026-04-22 00:24 38.38933 58.32942 36909 ft 524 kts 110°
2026-04-22 00:24 38.37177 58.41964 36902 ft 525 kts 109°
2026-04-22 00:25 38.35442 58.51022 36901 ft 525 kts 110°
2026-04-22 00:25 38.33663 58.60043 36906 ft 524 kts 110°
2026-04-22 00:26 38.31857 58.69029 36904 ft 524 kts 110°
2026-04-22 00:26 38.30035 58.78028 36897 ft 524 kts 110°
2026-04-22 00:27 38.28226 58.86946 36901 ft 523 kts 110°
2026-04-22 00:27 38.26400 58.95916 36903 ft 523 kts 110°
2026-04-22 00:28 38.24568 59.04877 36901 ft 522 kts 110°
2026-04-22 00:28 38.22731 59.13825 36902 ft 522 kts 110°
2026-04-22 00:29 38.20903 59.22694 36905 ft 521 kts 110°
2026-04-22 00:29 38.19059 59.31601 36904 ft 521 kts 110°
2026-04-22 00:30 38.17209 59.40502 36905 ft 520 kts 110°
2026-04-22 00:30 38.15353 59.49391 36903 ft 520 kts 110°
2026-04-22 00:31 38.13491 59.58274 36897 ft 520 kts 111°
2026-04-22 00:31 38.11623 59.67151 36903 ft 520 kts 111°
2026-04-22 00:32 38.09745 59.76041 36899 ft 521 kts 111°
2026-04-22 00:32 38.07861 59.84920 36900 ft 521 kts 111°
2026-04-22 00:33 38.05966 59.93814 36901 ft 522 kts 111°
2026-04-22 00:33 38.04062 60.02719 36895 ft 523 kts 111°
2026-04-22 00:34 38.02160 60.11585 36897 ft 524 kts 111°
2026-04-22 00:34 38.00236 60.20506 36902 ft 524 kts 111°
2026-04-22 00:35 37.98294 60.29422 36889 ft 524 kts 112°
2026-04-22 00:35 37.96342 60.38342 36889 ft 524 kts 112°
2026-04-22 00:36 37.94406 60.47181 36876 ft 514 kts 112°
2026-04-22 00:36 37.92506 60.55823 36874 ft 510 kts 112°
2026-04-22 00:37 37.90601 60.64433 36881 ft 506 kts 112°
2026-04-22 00:37 37.88699 60.72994 36883 ft 504 kts 112°
2026-04-22 00:38 37.86792 60.81544 36884 ft 504 kts 113°
2026-04-22 00:38 37.84879 60.90095 36878 ft 506 kts 113°
2026-04-22 00:39 37.82967 60.98612 36884 ft 507 kts 113°
2026-04-22 00:39 37.81028 61.07220 36880 ft 509 kts 113°
2026-04-22 00:40 37.79079 61.15841 36884 ft 510 kts 113°
2026-04-22 00:40 37.77121 61.24468 36878 ft 511 kts 113°
2026-04-22 00:41 37.75153 61.33112 36881 ft 511 kts 113°
2026-04-22 00:41 37.73179 61.41743 36879 ft 512 kts 113°
2026-04-22 00:42 37.71210 61.50326 36874 ft 512 kts 113°
2026-04-22 00:42 37.69224 61.58951 36876 ft 512 kts 113°
2026-04-22 00:43 37.67232 61.67565 36877 ft 512 kts 113°
2026-04-22 00:43 37.65230 61.76203 36879 ft 512 kts 114°
2026-04-22 00:44 37.63130 61.84776 36875 ft 506 kts 118°
2026-04-22 00:44 37.60645 61.91382 36897 ft 497 kts 127°
2026-04-22 00:45 37.56837 61.98540 36894 ft 488 kts 135°
2026-04-22 00:45 37.52772 62.05351 36879 ft 489 kts 135°
2026-04-22 00:46 37.48685 62.12203 36879 ft 490 kts 135°
2026-04-22 00:46 37.44596 62.19109 36880 ft 491 kts 134°
2026-04-22 00:47 37.40512 62.26024 36873 ft 492 kts 135°
2026-04-22 00:47 37.36420 62.32941 36879 ft 493 kts 134°
2026-04-22 00:48 37.32327 62.39842 36876 ft 493 kts 135°
2026-04-22 00:48 37.28249 62.46702 36882 ft 493 kts 135°
2026-04-22 00:49 37.24134 62.53608 36878 ft 493 kts 135°
2026-04-22 00:49 37.20027 62.60488 36875 ft 492 kts 135°
2026-04-22 00:50 37.15930 62.67339 36876 ft 491 kts 135°
2026-04-22 00:50 37.11827 62.74183 36876 ft 490 kts 135°
2026-04-22 00:51 37.07727 62.81008 36875 ft 489 kts 135°
2026-04-22 00:51 37.03633 62.87808 36873 ft 489 kts 135°
2026-04-22 00:52 36.99544 62.94588 36882 ft 488 kts 135°
2026-04-22 00:52 36.95474 63.01321 36886 ft 488 kts 135°
2026-04-22 00:53 36.91374 63.08090 36886 ft 488 kts 135°
2026-04-22 00:53 36.87268 63.14857 36882 ft 489 kts 135°
2026-04-22 00:54 36.83156 63.21620 36885 ft 489 kts 136°
2026-04-22 00:54 36.79031 63.28391 36884 ft 489 kts 136°
2026-04-22 00:55 36.74907 63.35145 36881 ft 489 kts 136°
2026-04-22 00:55 36.68700 63.45287 36873 ft 490 kts 136°
2026-04-22 00:56 36.64592 63.51985 36889 ft 490 kts 136°
2026-04-22 00:56 36.60443 63.58734 36888 ft 491 kts 136°
2026-04-22 00:57 36.56316 63.65435 36884 ft 491 kts 136°
2026-04-22 00:57 36.52159 63.72170 36883 ft 491 kts 136°
2026-04-22 00:58 36.47994 63.78904 36881 ft 492 kts 136°
2026-04-22 00:58 36.43817 63.85646 36885 ft 492 kts 136°
2026-04-22 00:59 36.39635 63.92382 36877 ft 493 kts 136°
2026-04-22 00:59 36.35434 63.99135 36875 ft 493 kts 135°
2026-04-22 01:00 36.31237 64.05871 36880 ft 494 kts 135°
2026-04-22 01:00 36.27034 64.12602 36880 ft 494 kts 135°
2026-04-22 01:01 36.22839 64.19308 36878 ft 494 kts 135°
2026-04-22 01:01 36.18621 64.26039 36869 ft 494 kts 135°
2026-04-22 01:02 36.14432 64.32796 36867 ft 495 kts 134°
2026-04-22 01:02 36.10359 64.39675 36878 ft 495 kts 134°
2026-04-22 01:03 36.06328 64.46521 36874 ft 495 kts 134°
2026-04-22 01:03 36.02249 64.53395 36868 ft 496 kts 134°
2026-04-22 01:04 35.98156 64.60253 36883 ft 496 kts 134°
2026-04-22 01:04 35.94037 64.67132 36873 ft 497 kts 134°
2026-04-22 01:05 35.89922 64.73993 36880 ft 498 kts 133°
2026-04-22 01:05 35.85825 64.80813 36885 ft 498 kts 133°
2026-04-22 01:06 35.81703 64.87660 36900 ft 498 kts 133°
2026-04-22 01:06 35.77578 64.94502 36912 ft 498 kts 133°
2026-04-22 01:07 35.73451 65.01327 36924 ft 497 kts 133°
2026-04-22 01:07 35.69324 65.08143 36950 ft 497 kts 133°
2026-04-22 01:08 35.65177 65.14979 36957 ft 499 kts 133°
2026-04-22 01:08 35.61036 65.21790 36966 ft 500 kts 133°
2026-04-22 01:09 35.56860 65.28646 36991 ft 502 kts 133°
2026-04-22 01:09 35.52661 65.35525 36988 ft 505 kts 133°
2026-04-22 01:10 35.48438 65.42428 37000 ft 506 kts 133°
2026-04-22 01:10 35.44197 65.49351 36994 ft 507 kts 133°
2026-04-22 01:11 35.39963 65.56249 37001 ft 506 kts 133°
2026-04-22 01:11 35.35719 65.63149 37003 ft 506 kts 133°
2026-04-22 01:12 35.31472 65.70042 36995 ft 506 kts 132°
2026-04-22 01:12 35.27247 65.76880 36997 ft 507 kts 132°
2026-04-22 01:13 35.22993 65.83755 36998 ft 507 kts 132°
2026-04-22 01:13 35.18727 65.90637 36995 ft 507 kts 133°
2026-04-22 01:14 35.14454 65.97515 36995 ft 508 kts 132°
2026-04-22 01:14 35.10178 66.04387 36991 ft 508 kts 132°
2026-04-22 01:15 35.05895 66.11254 36992 ft 508 kts 133°
2026-04-22 01:15 35.01611 66.18112 36986 ft 507 kts 132°
2026-04-22 01:16 34.97369 66.24889 36986 ft 504 kts 132°
2026-04-22 01:16 34.93108 66.31645 36955 ft 499 kts 133°
2026-04-22 01:17 34.88864 66.38320 36992 ft 497 kts 133°
2026-04-22 01:17 34.84648 66.44947 37010 ft 497 kts 133°
2026-04-22 01:18 34.80414 66.51595 37005 ft 496 kts 133°
2026-04-22 01:18 34.76181 66.58231 37004 ft 497 kts 133°
2026-04-22 01:19 34.71957 66.64839 37011 ft 497 kts 132°
2026-04-22 01:19 34.67718 66.71461 36999 ft 497 kts 133°
2026-04-22 01:20 34.63464 66.78094 37013 ft 498 kts 133°
2026-04-22 01:20 34.59192 66.84741 37025 ft 500 kts 133°
2026-04-22 01:21 34.54895 66.91418 37023 ft 502 kts 133°
2026-04-22 01:21 34.50577 66.98094 37036 ft 504 kts 133°
2026-04-22 01:22 34.46227 67.04792 37027 ft 505 kts 133°
2026-04-22 01:22 34.41880 67.11473 37031 ft 504 kts 133°
2026-04-22 01:23 34.37563 67.18103 37032 ft 503 kts 133°
2026-04-22 01:23 34.33226 67.24753 37025 ft 502 kts 133°
2026-04-22 01:24 34.28902 67.31368 37036 ft 501 kts 133°
2026-04-22 01:24 34.24577 67.37970 37049 ft 501 kts 133°
2026-04-22 01:25 34.20246 67.44573 37042 ft 501 kts 133°
2026-04-22 01:25 34.15909 67.51172 37063 ft 502 kts 133°
2026-04-22 01:26 34.11582 67.57741 37055 ft 503 kts 132°
2026-04-22 01:26 34.07213 67.64365 37057 ft 504 kts 132°
2026-04-22 01:27 34.02838 67.70987 37061 ft 505 kts 132°
2026-04-22 01:27 33.98451 67.77616 37056 ft 505 kts 132°
2026-04-22 01:28 33.94043 67.84206 37063 ft 505 kts 133°
2026-04-22 01:28 33.89603 67.90774 37056 ft 505 kts 132°
2026-04-22 01:29 33.85199 67.97283 37053 ft 504 kts 132°
2026-04-22 01:29 33.80776 68.03821 37039 ft 503 kts 132°
2026-04-22 01:30 33.76369 68.10326 37029 ft 501 kts 132°
2026-04-22 01:30 33.71963 68.16817 37030 ft 500 kts 131°
2026-04-22 01:31 33.67563 68.23290 37022 ft 500 kts 131°
2026-04-22 01:31 33.63184 68.29719 37019 ft 499 kts 131°
2026-04-22 01:32 33.58782 68.36170 37002 ft 500 kts 131°
2026-04-22 01:32 33.54368 68.42627 37011 ft 500 kts 132°
2026-04-22 01:33 33.49872 68.49001 37011 ft 500 kts 133°
2026-04-22 01:33 33.45337 68.55334 37007 ft 501 kts 133°
2026-04-22 01:34 33.41569 68.60611 36991 ft 502 kts 133°
2026-04-22 01:34 33.37037 68.66968 36997 ft 502 kts 132°
2026-04-22 01:35 33.32495 68.73334 36977 ft 503 kts 132°
2026-04-22 01:35 33.27946 68.79699 36997 ft 503 kts 132°
2026-04-22 01:36 33.23638 68.86236 36991 ft 504 kts 129°
2026-04-22 01:36 33.19386 68.92907 36992 ft 504 kts 129°
2026-04-22 01:37 33.15118 68.99569 36990 ft 505 kts 129°
2026-04-22 01:37 33.10831 69.06204 36991 ft 505 kts 129°
2026-04-22 01:38 33.06561 69.12791 36986 ft 505 kts 129°
2026-04-22 01:38 33.02263 69.19410 36980 ft 504 kts 130°
2026-04-22 01:39 32.97966 69.26020 36980 ft 504 kts 130°
2026-04-22 01:39 32.93669 69.32619 36967 ft 504 kts 130°
2026-04-22 01:40 32.89372 69.39207 36968 ft 504 kts 129°
2026-04-22 01:40 32.85074 69.45780 36963 ft 503 kts 130°
2026-04-22 01:41 32.80786 69.52301 36959 ft 503 kts 130°
2026-04-22 01:41 32.76473 69.58847 36954 ft 503 kts 129°
2026-04-22 01:42 32.74636 69.62367 36926 ft 503 kts 112°
2026-04-22 01:42 32.73779 69.66391 36953 ft 505 kts 96°
2026-04-22 01:42 32.73793 69.70560 36947 ft 505 kts 82°
2026-04-22 01:42 32.74520 69.74630 36944 ft 504 kts 75°
2026-04-22 01:43 32.76385 69.82685 36934 ft 508 kts 73°
2026-04-22 01:43 32.78302 69.90802 36912 ft 511 kts 73°
2026-04-22 01:44 32.80153 69.98981 36903 ft 513 kts 74°
2026-04-22 01:44 32.81947 70.07140 36887 ft 513 kts 75°
2026-04-22 01:45 32.83738 70.15361 36872 ft 512 kts 75°
2026-04-22 01:45 32.85520 70.23552 36859 ft 511 kts 75°
2026-04-22 01:46 32.87299 70.31740 36848 ft 510 kts 75°
2026-04-22 01:46 32.89058 70.39861 36831 ft 509 kts 75°
2026-04-22 01:47 32.90819 70.48015 36819 ft 508 kts 75°
2026-04-22 01:47 32.92569 70.56147 36819 ft 507 kts 75°
2026-04-22 01:48 32.94315 70.64291 36816 ft 507 kts 75°
2026-04-22 01:48 32.96055 70.72431 36810 ft 508 kts 75°
2026-04-22 01:49 32.97793 70.80594 36814 ft 508 kts 75°
2026-04-22 01:49 32.99527 70.88764 36811 ft 509 kts 75°
2026-04-22 01:50 33.01246 70.96893 36790 ft 506 kts 75°
2026-04-22 01:50 33.02102 71.00949 36334 ft 505 kts 75°
2026-04-22 01:50 33.02955 71.05002 35609 ft 504 kts 75°
2026-04-22 01:51 33.03808 71.09057 34766 ft 505 kts 75°
2026-04-22 01:51 33.04663 71.13129 33872 ft 508 kts 75°
2026-04-22 01:51 33.05520 71.17217 32804 ft 511 kts 75°
2026-04-22 01:51 33.06383 71.21343 31765 ft 513 kts 75°
2026-04-22 01:52 33.07245 71.25475 30930 ft 511 kts 76°
2026-04-22 01:52 33.08097 71.29565 30247 ft 506 kts 76°
2026-04-22 01:52 33.08941 71.33624 29519 ft 502 kts 76°
2026-04-22 01:52 33.09774 71.37635 28760 ft 497 kts 76°
2026-04-22 01:53 33.10598 71.41615 28046 ft 491 kts 76°
2026-04-22 01:53 33.11410 71.45541 27368 ft 485 kts 76°
2026-04-22 01:53 33.12214 71.49432 26702 ft 480 kts 76°
2026-04-22 01:53 33.13008 71.53281 26047 ft 475 kts 76°
2026-04-22 01:54 33.13793 71.57094 25400 ft 471 kts 76°
2026-04-22 01:54 33.14573 71.60887 24742 ft 468 kts 76°
2026-04-22 01:54 33.15345 71.64650 24084 ft 465 kts 76°
2026-04-22 01:54 33.16111 71.68389 23433 ft 463 kts 76°
2026-04-22 01:55 33.16874 71.72119 22693 ft 460 kts 76°
2026-04-22 01:55 33.17618 71.75757 22029 ft 456 kts 76°
2026-04-22 01:55 33.18369 71.79442 21374 ft 452 kts 76°
2026-04-22 01:55 33.19110 71.83084 20763 ft 448 kts 76°
2026-04-22 01:56 33.19841 71.86679 20163 ft 444 kts 76°
2026-04-22 01:56 33.20567 71.90253 19570 ft 441 kts 76°
2026-04-22 01:56 33.21286 71.93804 18983 ft 438 kts 77°
2026-04-22 01:56 33.21998 71.97325 18387 ft 435 kts 77°
2026-04-22 01:57 33.22699 72.00795 17768 ft 433 kts 77°
2026-04-22 01:57 33.23400 72.04272 17152 ft 429 kts 77°
2026-04-22 01:57 33.24093 72.07718 16563 ft 425 kts 77°
2026-04-22 01:57 33.24780 72.11137 15998 ft 421 kts 76°
2026-04-22 01:58 33.25462 72.14532 15444 ft 417 kts 76°
2026-04-22 01:58 33.26134 72.17888 14899 ft 414 kts 76°
2026-04-22 01:58 33.26799 72.21214 14365 ft 410 kts 76°
2026-04-22 01:58 33.27460 72.24519 13820 ft 408 kts 76°
2026-04-22 01:59 33.28113 72.27795 13351 ft 402 kts 76°
2026-04-22 01:59 33.28753 72.31002 12812 ft 398 kts 76°
2026-04-22 01:59 33.29397 72.34238 12253 ft 395 kts 76°
2026-04-22 01:59 33.30031 72.37427 11735 ft 392 kts 76°
2026-04-22 02:00 33.30659 72.40589 11203 ft 389 kts 76°
2026-04-22 02:00 33.31273 72.43689 10862 ft 382 kts 76°
2026-04-22 02:00 33.31872 72.46724 10700 ft 369 kts 76°
2026-04-22 02:00 33.32453 72.49664 10531 ft 357 kts 76°
2026-04-22 02:01 33.33013 72.52508 10387 ft 345 kts 76°
2026-04-22 02:01 33.33556 72.55260 10237 ft 334 kts 76°
2026-04-22 02:01 33.34080 72.57925 10107 ft 323 kts 76°
2026-04-22 02:01 33.34587 72.60501 9961 ft 314 kts 76°
2026-04-22 02:02 33.35081 72.63018 9724 ft 308 kts 76°
2026-04-22 02:02 33.35572 72.65518 9367 ft 307 kts 76°
2026-04-22 02:02 33.36058 72.67998 9004 ft 306 kts 75°
2026-04-22 02:02 33.36542 72.70470 8679 ft 304 kts 75°
2026-04-22 02:03 33.37012 72.72873 8331 ft 295 kts 75°
2026-04-22 02:03 33.37468 72.75212 8016 ft 283 kts 75°
2026-04-22 02:03 33.37905 72.77455 7714 ft 271 kts 75°
2026-04-22 02:03 33.38331 72.79638 7452 ft 268 kts 75°
2026-04-22 02:04 33.39172 72.83953 6945 ft 264 kts 75°
2026-04-22 02:04 33.39587 72.86091 6699 ft 262 kts 75°
2026-04-22 02:04 33.39999 72.88213 6442 ft 261 kts 75°
2026-04-22 02:05 33.40408 72.90319 6177 ft 259 kts 75°
2026-04-22 02:05 33.40815 72.92416 5904 ft 257 kts 75°
2026-04-22 02:05 33.41217 72.94495 5656 ft 255 kts 75°
2026-04-22 02:05 33.41617 72.96562 5385 ft 253 kts 75°
2026-04-22 02:06 33.42011 72.98602 5149 ft 249 kts 75°
2026-04-22 02:06 33.42445 73.00571 4946 ft 238 kts 64°
2026-04-22 02:06 33.43430 73.02036 4735 ft 226 kts 32°
2026-04-22 02:06 33.44852 73.02794 4546 ft 223 kts 13°
2026-04-22 02:07 33.46377 73.03175 4347 ft 225 kts
2026-04-22 02:07 33.47913 73.03505 4138 ft 223 kts
2026-04-22 02:07 33.49430 73.03697 3881 ft 216 kts 351°
2026-04-22 02:07 33.50764 73.03029 3763 ft 207 kts 323°
2026-04-22 02:08 33.51742 73.01783 3728 ft 206 kts 296°
2026-04-22 02:08 33.52083 73.00156 3699 ft 196 kts 280°
2026-04-22 02:08 33.52308 72.98573 3685 ft 192 kts 282°
2026-04-22 02:08 33.52549 72.97030 3696 ft 189 kts 282°
2026-04-22 02:09 33.52788 72.95498 3513 ft 183 kts 282°
2026-04-22 02:09 33.53013 72.94050 3292 ft 170 kts 282°
2026-04-22 02:09 33.53222 72.92710 3078 ft 156 kts 283°
2026-04-22 02:09 33.53419 72.91458 2899 ft 153 kts 283°
2026-04-22 02:10 33.53612 72.90225 2710 ft 149 kts 283°
2026-04-22 02:10 33.53803 72.89003 2516 ft 149 kts 282°
2026-04-22 02:10 33.53995 72.87780 2330 ft 148 kts 280°
2026-04-22 02:10 33.54183 72.86576 2138 ft 147 kts 279°
2026-04-22 02:11 33.54371 72.85381 1961 ft 146 kts 278°
2026-04-22 02:11 33.54552 72.84200 1793 ft 146 kts 279°
2026-04-22 02:11 33.54722 72.83109 1770 ft 110 kts 281°
2026-04-22 02:11 33.54829 72.82622 1766 ft 32 kts 300°
2026-04-22 02:12 33.54923 72.82476 1769 ft 15 kts 310°
2026-04-22 02:12 33.54989 72.82427 1767 ft 10 kts
2026-04-22 02:12 33.55049 72.82444 1767 ft 7 kts 13°
2026-04-22 02:12 33.55087 72.82454 1770 ft 7 kts 11°
2026-04-22 02:13 33.55156 72.82471 1772 ft 11 kts 11°
2026-04-22 02:13 33.55205 72.82507 1776 ft 8 kts 77°
2026-04-22 02:13 33.55195 72.82575 1775 ft 8 kts 100°
2026-04-22 02:13 33.55185 72.82641 1772 ft 8 kts 100°
2026-04-22 02:14 33.55175 72.82709 1775 ft 8 kts 100°
2026-04-22 02:14 33.55165 72.82777 1776 ft 8 kts 100°
2026-04-22 02:14 33.55155 72.82844 1776 ft 8 kts 100°
2026-04-22 02:14 33.55147 72.82897 1775 ft 6 kts 100°
2026-04-22 02:15 33.55150 72.82939 1774 ft 6 kts 68°
2026-04-22 02:15 33.55178 72.82985 1776 ft 10 kts 54°
2026-04-22 02:15 33.55228 72.83069 1776 ft 13 kts 56°
2026-04-22 02:15 33.55275 72.83151 1777 ft 8 kts 56°
2026-04-22 02:16 33.55317 72.83156 1775 ft 7 kts 334°
2026-04-22 02:16 33.55357 72.83125 1775 ft 7 kts 326°
2026-04-22 02:16 33.55370 72.83115 1778 ft 0 kts 326°
2026-04-22 02:17 33.55372 72.83114 1778 ft 0 kts 326°